Retour au catalogue

TIANQI 22

ActifCommunicationsLEO
NORAD 57793·PAYLOAD·🇨🇳 China

Lancé Sep 5, 2023 depuis Yellow Sea Launch Area

Loading…

Prochains Passages (prochaines 24 heures)

TLE

FraisSource: Space-Track

Époque: Sep 14, 2026, 15:15 UTC

1 57793U 23135B   26257.63600146  .00000291  00000-0  19784-3 0  9997
2 57793  49.9676 136.0519 0011763 214.2892 145.7262 14.23160119157362

Suivez TIANQI 22 en temps réel avec AllMySat

Download on the App Store